Weather History for KLHQ - November, 2012

Change the Weather History Date:

Thursday, November 15, 2012

  Actual Average Record
Temperature  
Mean Temperature 34 °F -  
Max Temperature 48 °F 51 °F - (-1)
Min Temperature 21 °F 31 °F - (-1)
Degree Days  
Heating Degree Days 30    
Moisture  
Dew Point 25 °F    
Average Humidity 76    
Maximum Humidity 92    
Minimum Humidity 46    
Precipitation  
Precipitation 0.00 in - - ()
Sea Level Pressure  
Sea Level Pressure 30.37 in    
Wind  
Wind Speed 1 mph (South)    
Max Wind Speed 5 mph    
Max Gust Speed -    
Visibility 8 miles    
Events      
Averages and records for this station are not official NWS values.
T = Trace of Precipitation, MM = Missing Value Source: NWS Daily Summary

Daily Weather History Graph

Daily Weather History Graph

Search for Another Location

Airport or City:

Trip Planner

Search our weather history database for the weather conditions in past years. The results will help you decide how hot, cold, wet, or windy it might be!

Date:

Astronomy

Nov. 15, 2012 Rise Set
Actual Time 7:15 AM EST 5:14 PM EST
Civil Twilight 6:46 AM EST 5:43 PM EST
Nautical Twilight 6:14 AM EST 6:16 PM EST
Astronomical Twilight 5:42 AM EST 6:47 PM EST
Moon 9:10 AM EST (11/15) 7:04 PM EST (11/15)
Length of Visible Light 10h 56m
Length of Day
9h 58m
Waxing Crescent, 5% of the Moon is Illuminated
Nov 15
Waxing Crescent
Nov 20
First Quarter
Nov 28
Full
Dec 6
Last Quarter
Dec 13
New

Hourly Weather History & Observations

Time (EST) Temp. Windchill Dew Point Humidity Pressure Visibility Wind Dir Wind Speed Gust Speed Precip Events Conditions
12:53 AM 27.0 °F - 23.0 °F 85% 30.39 in 7.0 mi Calm Calm - N/A   Clear
1:53 AM 26.1 °F 20.5 °F 21.9 °F 84% 30.37 in 6.0 mi North 4.6 mph - N/A   Clear
2:53 AM 24.1 °F - 19.9 °F 84% 30.36 in 5.0 mi Calm Calm - N/A   Clear
3:53 AM 21.9 °F 17.2 °F 19.9 °F 92% 30.36 in 5.0 mi North 3.5 mph - N/A   Clear
4:53 AM 21.0 °F - 17.1 °F 85% 30.37 in 6.0 mi Calm Calm - N/A   Clear
5:53 AM 21.0 °F - 17.1 °F 85% 30.38 in 5.0 mi Calm Calm - N/A   Clear
6:53 AM 21.0 °F - 17.1 °F 85% 30.40 in 5.0 mi Calm Calm - N/A   Clear
7:53 AM 23.0 °F - 19.0 °F 85% 30.40 in 4.0 mi Calm Calm - N/A   Clear
8:53 AM 30.0 °F 26.5 °F 26.1 °F 85% 30.39 in 5.0 mi North 3.5 mph - N/A   Clear
9:53 AM 35.1 °F - 28.0 °F 76% 30.39 in 6.0 mi Calm Calm - N/A   Haze
10:53 AM 39.9 °F - 28.0 °F 63% 30.39 in 9.0 mi Calm Calm - N/A   Clear
11:53 AM 43.0 °F 41.3 °F 28.9 °F 58% 30.38 in 10.0 mi North 3.5 mph - N/A   Clear
12:53 PM 45.0 °F - 28.0 °F 52% 30.36 in 10.0 mi Calm Calm - N/A   Clear
1:53 PM 46.9 °F - 27.0 °F 46% 30.33 in 10.0 mi Calm Calm - N/A   Clear
2:53 PM 48.0 °F - 28.0 °F 46% 30.33 in 10.0 mi North 4.6 mph - N/A   Clear
3:53 PM 48.0 °F - 28.9 °F 48% 30.33 in 10.0 mi North 3.5 mph - N/A   Clear
4:53 PM 43.0 °F - 28.0 °F 56% 30.33 in 10.0 mi Calm Calm - N/A   Clear
5:53 PM 37.0 °F - 28.9 °F 73% 30.33 in 10.0 mi Calm Calm - N/A   Clear
6:53 PM 32.0 °F - 28.0 °F 85% 30.35 in 10.0 mi Calm Calm - N/A   Clear
7:53 PM 28.9 °F - 26.1 °F 89% 30.35 in 9.0 mi Calm Calm - N/A   Clear
8:53 PM 28.0 °F - 25.0 °F 88% 30.36 in 8.0 mi Calm Calm - N/A   Clear
9:53 PM 28.9 °F - 26.1 °F 89% 30.37 in 9.0 mi Calm Calm - N/A   Clear
10:53 PM 28.0 °F - 25.0 °F 88% 30.37 in 8.0 mi Calm Calm - N/A   Clear
11:53 PM 27.0 °F - 24.1 °F 89% 30.38 in 7.0 mi Calm Calm - N/A   Clear